CST,Max TemperatureF,Mean TemperatureF,Min TemperatureF,Max Dew PointF,MeanDew PointF,Min DewpointF,Max Humidity, Mean Humidity, Min Humidity, Max Sea Level PressureIn, Mean Sea Level PressureIn, Min Sea Level PressureIn, Max VisibilityMiles, Mean VisibilityMiles, Min VisibilityMiles, Max Wind SpeedMPH, Mean Wind SpeedMPH, Max Gust SpeedMPH,PrecipitationIn, CloudCover, Events, WindDirDegrees
2013-1-1,17,10,3,7,3,-2,100,73,53,30.18,30.10,30.04,10,10,10,9,5,,0.00,1,,277
2013-1-2,21,16,10,18,13,5,93,83,68,30.11,30.06,30.01,10,9,4,12,6,,0.00,8,,234
2013-1-3,28,22,17,21,15,9,86,76,63,30.08,30.03,29.94,10,9,7,13,6,23,0.00,6,,274
2013-1-4,33,24,14,19,14,7,86,69,52,30.12,29.97,29.90,10,10,10,15,10,25,0.00,0,,265
2013-1-5,30,19,8,25,17,3,100,84,64,30.17,30.00,29.83,10,8,6,18,4,23,0.00,0,,239
2013-1-6,30,21,12,25,18,7,100,76,55,30.21,30.02,29.81,10,10,5,20,7,28,0.00,4,,331
2013-1-7,33,25,17,25,18,10,100,71,51,30.20,30.00,29.87,10,10,7,25,12,38,0.00,0,,230
2013-1-8,37,30,23,34,27,21,100,83,70,30.10,29.99,29.81,10,8,3,20,7,25,0.00,2,,209
2013-1-9,41,34,26,30,24,19,81,64,42,30.41,30.04,29.78,10,10,8,17,11,26,0.00,3,,270
2013-1-10,37,28,19,34,26,18,100,84,65,30.48,30.32,29.95,10,10,5,12,4,,0.13,1,,154
2013-1-11,44,38,33,43,37,34,100,96,87,29.94,29.69,29.55,10,3,0,12,6,17,0.18,7,,188
2013-1-12,46,35,23,43,29,14,100,75,60,29.96,29.72,29.51,10,9,4,21,12,32,0.00,3,,248
2013-1-13,24,20,14,14,12,7,79,67,59,30.10,29.95,29.88,10,10,4,13,6,21,0.00,7,,303
2013-1-14,23,14,6,9,5,1,92,67,46,30.37,30.30,30.11,10,10,10,13,8,21,0.00,0,,268
2013-1-15,30,18,5,18,10,1,100,71,47,30.39,30.23,29.98,10,10,7,17,6,22,0.00,2,,232
2013-1-16,30,24,19,23,15,5,80,66,43,30.04,29.79,29.63,10,10,2,20,11,29,0.00,6,,272
2013-1-17,21,12,3,9,0,-6,85,58,35,30.36,30.25,30.05,10,10,10,14,7,23,0.00,2,,333
2013-1-18,26,14,3,21,12,-6,100,82,64,30.37,30.02,29.73,10,9,2,18,4,23,0.00,6,,269
2013-1-19,41,28,15,34,22,1,93,82,53,29.81,29.65,29.48,10,9,1,26,4,36,0.00,6,,268
2013-1-20,12,6,1,1,-4,-8,73,59,45,30.19,30.10,29.79,10,10,10,18,10,31,0.00,2,,302
2013-1-21,1,-4,-9,-8,-15,-24,72,58,42,30.19,30.10,30.04,10,10,10,14,9,25,0.00,3,,299
2013-1-22,3,-4,-11,-11,-17,-22,84,55,33,30.27,30.24,30.18,10,10,10,13,6,,0.00,1,,291
2013-1-23,10,3,-4,3,-12,-27,73,49,29,30.37,30.17,30.04,10,9,2,16,7,24,0.00,4,,293
2013-1-24,12,5,-2,0,-14,-27,66,39,18,30.64,30.52,30.36,10,10,2,15,8,21,0.00,1,,354
2013-1-25,19,14,10,19,10,-6,100,82,48,30.35,30.06,29.91,10,5,0,15,3,17,0.00,7,,257
2013-1-26,28,18,8,18,8,-8,100,69,42,30.35,30.28,30.11,10,10,10,10,5,,0.00,2,,282
2013-1-27,33,26,19,32,22,10,100,81,59,30.33,30.17,29.91,10,7,0,15,8,22,0.00,8,,194
2013-1-28,35,32,28,34,31,28,100,89,75,29.96,29.87,29.78,10,7,0,10,5,,0.14,8,,138
2013-1-29,41,36,30,41,34,30,100,94,87,29.86,29.59,29.49,10,5,0,13,7,,0.17,8,,61
2013-1-30,35,24,14,34,21,7,100,87,63,29.53,29.40,29.29,10,3,0,18,10,25,0.01,8,,354
2013-1-31,15,10,6,12,6,-2,100,76,57,29.98,29.72,29.46,10,8,2,13,8,22,0.00,8,,313